TimeCST,TemperatureF,Dew PointF,Humidity,Sea Level PressureIn,VisibilityMPH,Wind Direction,Wind SpeedMPH,Gust SpeedMPH,PrecipitationIn,Events,Conditions,WindDirDegrees,DateUTC
12:14 AM,6.8,1.4,79,30.21,10.0,NNW,3.5,-,N/A,,Mostly Cloudy,330,2013-01-15 06:14:00
12:34 AM,6.8,1.4,79,30.20,10.0,NNW,5.8,-,N/A,,Mostly Cloudy,330,2013-01-15 06:34:00
12:54 AM,6.8,1.4,79,30.20,10.0,NNW,4.6,-,N/A,,Mostly Cloudy,330,2013-01-15 06:54:00
1:14 AM,6.8,1.4,79,30.19,10.0,NNW,3.5,-,N/A,,Overcast,330,2013-01-15 07:14:00
1:33 AM,6.8,1.4,79,30.19,10.0,NNW,3.5,-,N/A,,Mostly Cloudy,330,2013-01-15 07:33:00
1:54 AM,6.8,1.4,79,30.20,10.0,Calm,Calm,-,N/A,,Mostly Cloudy,0,2013-01-15 07:54:00
2:13 AM,6.8,1.4,79,30.18,10.0,Calm,Calm,-,N/A,,Overcast,0,2013-01-15 08:13:00
2:34 AM,8.6,1.4,73,30.19,10.0,NNW,6.9,-,N/A,,Overcast,330,2013-01-15 08:34:00
2:54 AM,8.6,3.2,79,30.18,10.0,NNW,3.5,-,N/A,,Overcast,330,2013-01-15 08:54:00
3:14 AM,8.6,1.4,73,30.17,10.0,NNW,3.5,-,N/A,,Overcast,330,2013-01-15 09:14:00
3:34 AM,8.6,1.4,73,30.17,10.0,NNW,4.6,-,N/A,,Overcast,330,2013-01-15 09:34:00
3:53 AM,6.8,1.4,79,30.16,10.0,Calm,Calm,-,N/A,,Overcast,0,2013-01-15 09:53:00
4:14 AM,6.8,1.4,79,30.15,10.0,NNW,6.9,-,N/A,,Overcast,330,2013-01-15 10:14:00
4:54 AM,8.6,3.2,79,30.14,10.0,NNW,3.5,-,N/A,,Overcast,330,2013-01-15 10:54:00
5:14 AM,8.6,3.2,79,30.12,10.0,NNW,4.6,-,N/A,,Overcast,330,2013-01-15 11:14:00
5:33 AM,6.8,3.2,85,30.11,10.0,NNW,3.5,-,N/A,,Overcast,330,2013-01-15 11:33:00
6:13 AM,8.6,3.2,79,30.11,10.0,NNW,4.6,-,N/A,,Overcast,330,2013-01-15 12:13:00
6:34 AM,8.6,3.2,79,30.10,10.0,NNW,8.1,-,N/A,,Overcast,330,2013-01-15 12:34:00
6:54 AM,8.6,3.2,79,30.10,10.0,NNW,5.8,-,N/A,,Overcast,330,2013-01-15 12:54:00
7:13 AM,8.6,3.2,79,30.10,10.0,NNW,9.2,-,N/A,,Overcast,330,2013-01-15 13:13:00
7:34 AM,6.8,1.4,79,30.10,10.0,NNW,6.9,-,N/A,,Scattered Clouds,330,2013-01-15 13:34:00
7:54 AM,6.8,1.4,79,30.10,10.0,NNW,6.9,-,N/A,,Clear,330,2013-01-15 13:54:00
8:14 AM,10.4,1.4,67,30.10,10.0,NNW,8.1,-,N/A,,Clear,330,2013-01-15 14:14:00
8:34 AM,10.4,1.4,67,30.10,10.0,NNW,8.1,-,N/A,,Scattered Clouds,330,2013-01-15 14:34:00
8:53 AM,10.4,1.4,67,30.09,10.0,NNW,8.1,-,N/A,,Scattered Clouds,330,2013-01-15 14:53:00
9:14 AM,10.4,1.4,67,30.10,10.0,NNW,9.2,-,N/A,,Clear,330,2013-01-15 15:14:00
9:33 AM,12.2,3.2,67,30.10,10.0,NNW,6.9,-,N/A,,Scattered Clouds,330,2013-01-15 15:33:00
9:54 AM,14.0,1.4,57,30.09,10.0,NNW,8.1,-,N/A,,Clear,330,2013-01-15 15:54:00
10:13 AM,14.0,1.4,57,30.08,10.0,NNW,8.1,-,N/A,,Clear,330,2013-01-15 16:13:00
10:34 AM,15.8,3.2,58,30.08,10.0,NNW,8.1,-,N/A,,Clear,330,2013-01-15 16:34:00
10:53 AM,15.8,3.2,58,30.08,10.0,NNW,6.9,-,N/A,,Clear,330,2013-01-15 16:53:00
11:14 AM,15.8,3.2,58,30.07,10.0,North,-9999.0,-,N/A,,Clear,0,2013-01-15 17:14:00
11:34 AM,-9999,-9999,N/A,30.04,-9999.0,South,6.9,-,N/A,,Unknown,180,2013-01-15 17:34:00
11:53 AM,19.4,5.0,54,30.03,10.0,SSW,9.2,-,N/A,,Clear,200,2013-01-15 17:53:00
12:14 PM,19.4,5.0,54,30.03,10.0,SSW,5.8,-,N/A,,Clear,200,2013-01-15 18:14:00
12:34 PM,21.2,5.0,50,30.02,10.0,SSW,6.9,-,N/A,,Clear,210,2013-01-15 18:34:00
12:54 PM,21.2,6.8,54,30.01,10.0,SSW,6.9,-,N/A,,Clear,200,2013-01-15 18:54:00
1:34 PM,21.2,6.8,54,29.98,10.0,South,6.9,-,N/A,,Clear,190,2013-01-15 19:34:00
1:53 PM,21.2,6.8,54,29.97,10.0,South,9.2,-,N/A,,Clear,190,2013-01-15 19:53:00
2:14 PM,21.2,6.8,54,29.97,10.0,SSW,6.9,16.1,N/A,,Clear,200,2013-01-15 20:14:00
2:34 PM,21.2,8.6,58,29.97,10.0,South,9.2,-,N/A,,Clear,180,2013-01-15 20:34:00
3:14 PM,21.2,8.6,58,29.96,10.0,South,9.2,-,N/A,,Clear,180,2013-01-15 21:14:00
3:33 PM,21.2,8.6,58,29.97,10.0,South,4.6,-,N/A,,Clear,190,2013-01-15 21:33:00
3:54 PM,21.2,6.8,54,29.96,10.0,South,8.1,-,N/A,,Clear,190,2013-01-15 21:54:00
4:13 PM,21.2,6.8,54,29.97,10.0,South,5.8,-,N/A,,Clear,190,2013-01-15 22:13:00
4:54 PM,19.4,6.8,58,29.95,10.0,SSW,5.8,-,N/A,,Clear,200,2013-01-15 22:54:00
5:33 PM,19.4,8.6,63,29.94,10.0,South,6.9,-,N/A,,Clear,190,2013-01-15 23:33:00
5:54 PM,17.6,8.6,68,29.93,10.0,South,8.1,-,N/A,,Clear,170,2013-01-15 23:54:00
6:14 PM,17.6,8.6,68,29.92,10.0,South,6.9,-,N/A,,Clear,180,2013-01-16 00:14:00
6:33 PM,17.6,8.6,68,29.91,10.0,South,6.9,-,N/A,,Clear,190,2013-01-16 00:33:00
6:53 PM,17.6,8.6,68,29.90,10.0,SSW,6.9,-,N/A,,Clear,200,2013-01-16 00:53:00
7:14 PM,19.4,8.6,63,29.88,10.0,South,6.9,-,N/A,,Clear,190,2013-01-16 01:14:00
7:34 PM,19.4,8.6,63,29.86,10.0,SSW,5.8,-,N/A,,Clear,200,2013-01-16 01:34:00
7:54 PM,19.4,8.6,63,29.85,10.0,SSW,6.9,-,N/A,,Clear,200,2013-01-16 01:54:00
8:14 PM,19.4,8.6,63,29.83,10.0,South,6.9,-,N/A,,Scattered Clouds,190,2013-01-16 02:14:00
8:34 PM,19.4,8.6,63,29.83,10.0,South,5.8,-,N/A,,Scattered Clouds,190,2013-01-16 02:34:00
8:54 PM,19.4,8.6,63,29.81,10.0,South,5.8,-,N/A,,Scattered Clouds,190,2013-01-16 02:54:00
9:14 PM,19.4,10.4,68,29.80,10.0,South,9.2,-,N/A,,Mostly Cloudy,180,2013-01-16 03:14:00
9:34 PM,21.2,10.4,63,29.78,10.0,South,6.9,-,N/A,,Overcast,190,2013-01-16 03:34:00
9:54 PM,23.0,12.2,63,29.76,10.0,SSW,8.1,-,N/A,,Overcast,200,2013-01-16 03:54:00
10:14 PM,24.8,12.2,59,29.75,10.0,SW,10.4,-,N/A,,Overcast,220,2013-01-16 04:14:00
10:34 PM,26.6,15.8,64,29.73,10.0,SW,10.4,18.4,N/A,Snow,Light Snow,220,2013-01-16 04:34:00
10:53 PM,26.6,15.8,64,29.70,5.0,SW,12.7,18.4,N/A,Snow,Light Snow,220,2013-01-16 04:53:00
11:14 PM,26.6,17.6,69,29.69,10.0,SW,10.4,18.4,N/A,Snow,Light Snow,220,2013-01-16 05:14:00
11:34 PM,26.6,17.6,69,29.69,10.0,SW,6.9,-,N/A,Snow,Light Snow,220,2013-01-16 05:34:00